| time (UTC) | temp F | wind direction | speed MPH | gust MPH | rain 1hr in | rain 24hr in | rain mn in | humidity % | barometer mb |
| 20260502223259 | 57 | 246 | 3.0 | 3.0 | 0.00 | 0.00 | 0.00 | 36 | 1018.0 |
| 20260502222757 | 56 | 282 | 1.0 | 1.0 | 0.00 | 0.00 | 0.00 | 38 | 1018.2 |
| 20260502222254 | 55 | 297 | 2.0 | 2.0 | 0.00 | 0.00 | 0.00 | 38 | 1018.0 |
| 20260502221749 | 56 | 123 | 1.0 | 2.0 | 0.00 | 0.00 | 0.00 | 37 | 1018.1 |
| 20260502221246 | 57 | 349 | 2.0 | 3.0 | 0.00 | 0.00 | 0.00 | 37 | 1018.0 |
| 20260502220743 | 55 | 252 | 2.0 | 3.0 | 0.00 | 0.00 | 0.00 | 38 | 1018.1 |
| 20260502220239 | 55 | 314 | 1.0 | 2.0 | 0.00 | 0.00 | 0.00 | 38 | 1018.3 |
| 20260502215736 | 57 | 272 | 4.0 | 7.0 | 0.00 | 0.00 | 0.00 | 36 | 1018.3 |
| 20260502215233 | 58 | 226 | 2.0 | 3.0 | 0.00 | 0.00 | 0.00 | 36 | 1018.5 |
| 20260502214730 | 57 | 246 | 2.0 | 2.0 | 0.00 | 0.00 | 0.00 | 37 | 1018.2 |
| 20260502214227 | 56 | 280 | 1.0 | 1.0 | 0.00 | 0.00 | 0.00 | 38 | 1018.4 |
| 20260502213724 | 57 | 262 | 2.0 | 3.0 | 0.00 | 0.00 | 0.00 | 37 | 1018.2 |
| 20260502213222 | 57 | 317 | 1.0 | 1.0 | 0.00 | 0.00 | 0.00 | 37 | 1018.4 |
| 20260502212720 | 57 | 337 | 3.0 | 7.0 | 0.00 | 0.00 | 0.00 | 37 | 1018.1 |
| 20260502212218 | 57 | 323 | 3.0 | 4.0 | 0.00 | 0.00 | 0.00 | 36 | 1018.4 |
| 20260502211714 | 57 | 317 | 1.0 | 1.0 | 0.00 | 0.00 | 0.00 | 36 | 1018.4 |
| 20260502211211 | 56 | 327 | 0.0 | 1.0 | 0.00 | 0.00 | 0.00 | 37 | 1018.4 |
| 20260502210708 | 55 | 303 | 2.0 | 2.0 | 0.00 | 0.00 | 0.00 | 38 | 1018.5 |
| 20260502210205 | 56 | 341 | 2.0 | 2.0 | 0.00 | 0.00 | 0.00 | 37 | 1018.5 |
| 20260502205702 | 56 | 330 | 1.0 | 2.0 | 0.00 | 0.00 | 0.00 | 37 | 1018.6 |
| 20260502205158 | 57 | 247 | 2.0 | 3.0 | 0.00 | 0.00 | 0.00 | 37 | 1018.5 |
| 20260502204655 | 57 | 326 | 2.0 | 3.0 | 0.00 | 0.00 | 0.00 | 36 | 1018.7 |
| 20260502204153 | 57 | 338 | 3.0 | 4.0 | 0.00 | 0.00 | 0.00 | 37 | 1018.6 |
| 20260502203650 | 57 | 317 | 2.0 | 3.0 | 0.00 | 0.00 | 0.00 | 36 | 1018.8 |
| 20260502203148 | 56 | 344 | 2.0 | 3.0 | 0.00 | 0.00 | 0.00 | 37 | 1018.7 |
| 20260502202642 | 55 | 286 | 2.0 | 2.0 | 0.00 | 0.00 | 0.00 | 36 | 1018.8 |
| 20260502202141 | 55 | 254 | 4.0 | 6.0 | 0.00 | 0.00 | 0.00 | 37 | 1019.1 |
| 20260502201637 | 55 | 279 | 4.0 | 6.0 | 0.00 | 0.00 | 0.00 | 36 | 1018.9 |
| 20260502201134 | 55 | 185 | 1.0 | 2.0 | 0.00 | 0.00 | 0.00 | 38 | 1019.0 |
| 20260502200629 | 54 | 345 | 3.0 | 3.0 | 0.00 | 0.00 | 0.00 | 36 | 1019.2 |
| 20260502200127 | 55 | 321 | 4.0 | 6.0 | 0.00 | 0.00 | 0.00 | 36 | 1019.0 |
| 20260502195625 | 55 | 345 | 3.0 | 4.0 | 0.00 | 0.00 | 0.00 | 38 | 1019.0 |
| 20260502195120 | 55 | 355 | 0.0 | 1.0 | 0.00 | 0.00 | 0.00 | 36 | 1019.3 |
| 20260502194618 | 56 | 9 | 3.0 | 3.0 | 0.00 | 0.00 | 0.00 | 36 | 1019.2 |
| 20260502194114 | 55 | 256 | 1.0 | 1.0 | 0.00 | 0.00 | 0.00 | 37 | 1019.3 |
| 20260502193611 | 54 | 75 | 0.0 | 0.0 | 0.00 | 0.00 | 0.00 | 38 | 1019.4 |
| 20260502193108 | 55 | 348 | 3.0 | 4.0 | 0.00 | 0.00 | 0.00 | 37 | 1019.5 |
| 20260502192603 | 55 | 3 | 2.0 | 3.0 | 0.00 | 0.00 | 0.00 | 37 | 1019.6 |
| 20260502192101 | 55 | 20 | 0.0 | 0.0 | 0.00 | 0.00 | 0.00 | 40 | 1019.6 |
| 20260502191558 | 54 | 312 | 3.0 | 3.0 | 0.00 | 0.00 | 0.00 | 38 | 1019.9 |
| 20260502191055 | 53 | 188 | 2.0 | 3.0 | 0.00 | 0.00 | 0.00 | 40 | 1019.9 |
| 20260502190553 | 53 | 335 | 2.0 | 2.0 | 0.00 | 0.00 | 0.00 | 40 | 1019.8 |
| 20260502190050 | 52 | 12 | 2.0 | 2.0 | 0.00 | 0.00 | 0.00 | 40 | 1020.0 |
| 20260502185544 | 53 | 215 | 3.0 | 6.0 | 0.00 | 0.00 | 0.00 | 39 | 1020.1 |
| 20260502185042 | 53 | 9 | 1.0 | 1.0 | 0.00 | 0.00 | 0.00 | 39 | 1020.2 |
| 20260502184538 | 53 | 8 | 3.0 | 3.0 | 0.00 | 0.00 | 0.00 | 40 | 1020.2 |
| 20260502184034 | 53 | 104 | 1.0 | 2.0 | 0.00 | 0.00 | 0.00 | 39 | 1020.1 |
| 20260502183530 | 53 | 273 | 1.0 | 2.0 | 0.00 | 0.00 | 0.00 | 39 | 1020.2 |
| 20260502183026 | 54 | 273 | 4.0 | 6.0 | 0.00 | 0.00 | 0.00 | 38 | 1020.2 |
| 20260502182521 | 55 | 269 | 2.0 | 3.0 | 0.00 | 0.00 | 0.00 | 37 | 1020.4 |
| 20260502182018 | 54 | 281 | 1.0 | 1.0 | 0.00 | 0.00 | 0.00 | 39 | 1020.2 |
| 20260502181515 | 52 | 349 | 3.0 | 4.0 | 0.00 | 0.00 | 0.00 | 40 | 1020.4 |
| 20260502181014 | 52 | 345 | 2.0 | 2.0 | 0.00 | 0.00 | 0.00 | 39 | 1020.7 |
| 20260502180511 | 52 | 352 | 2.0 | 3.0 | 0.00 | 0.00 | 0.00 | 39 | 1020.5 |
| 20260502170436 | 52 | 358 | 4.0 | 6.0 | 0.00 | 0.00 | 0.00 | 39 | 1021.0 |
| 20260502163919 | 51 | 25 | 1.0 | 1.0 | 0.00 | 0.00 | 0.00 | 41 | 1021.2 |
| 20260502163415 | 51 | 21 | 5.0 | 6.0 | 0.00 | 0.00 | 0.00 | 39 | 1021.3 |
| 20260502162913 | 51 | 5 | 5.0 | 7.0 | 0.00 | 0.00 | 0.00 | 39 | 1021.3 |
| 20260502162410 | 50 | 235 | 2.0 | 2.0 | 0.00 | 0.00 | 0.00 | 41 | 1021.3 |
| 20260502161907 | 51 | 315 | 3.0 | 4.0 | 0.00 | 0.00 | 0.00 | 40 | 1021.7 |
| 20260502161403 | 50 | 32 | 2.0 | 3.0 | 0.00 | 0.00 | 0.00 | 40 | 1021.5 |
| 20260502160901 | 49 | 267 | 2.0 | 2.0 | 0.00 | 0.00 | 0.00 | 40 | 1021.6 |
| 20260502160359 | 50 | 338 | 2.0 | 3.0 | 0.00 | 0.00 | 0.00 | 40 | 1021.5 |
| 20260502152340 | 50 | 346 | 4.0 | 6.0 | 0.00 | 0.00 | 0.00 | 41 | 1021.6 |
| 20260502151837 | 51 | 321 | 2.0 | 3.0 | 0.00 | 0.00 | 0.00 | 41 | 1021.7 |
| 20260502151333 | 50 | 265 | 3.0 | 3.0 | 0.00 | 0.00 | 0.00 | 42 | 1021.6 |
| 20260502150831 | 50 | 152 | 3.0 | 3.0 | 0.00 | 0.00 | 0.00 | 44 | 1021.7 |
| 20260502150327 | 50 | 18 | 0.0 | 1.0 | 0.00 | 0.00 | 0.00 | 43 | 1021.5 |
| 20260502130716 | 44 | 282 | 2.0 | 2.0 | 0.00 | 0.00 | 0.00 | 65 | 1021.6 |
| 20260502130214 | 43 | 331 | 0.0 | 1.0 | 0.00 | 0.00 | 0.00 | 66 | 1021.7 |
| 20260502123659 | 42 | 10 | 0.0 | 0.0 | 0.00 | 0.00 | 0.00 | 71 | 1021.8 |
| 20260502123156 | 41 | 32 | 0.0 | 1.0 | 0.00 | 0.00 | 0.00 | 72 | 1021.6 |
| 20260502122652 | 41 | 355 | 1.0 | 1.0 | 0.00 | 0.00 | 0.00 | 74 | 1021.7 |
| 20260502122149 | 40 | 1 | 1.0 | 1.0 | 0.00 | 0.00 | 0.00 | 75 | 1021.6 |
| 20260502121647 | 39 | 1 | 0.0 | 1.0 | 0.00 | 0.00 | 0.00 | 77 | 1021.6 |
| 20260502121145 | 39 | 268 | 1.0 | 1.0 | 0.00 | 0.00 | 0.00 | 78 | 1021.6 |
| 20260502120641 | 38 | 345 | 0.0 | 0.0 | 0.00 | 0.00 | 0.00 | 83 | 1021.4 |
| 20260502120138 | 37 | 28 | 0.0 | 0.0 | 0.00 | 0.00 | 0.00 | 89 | 1021.3 |
| 20260502115635 | 37 | 355 | 0.0 | 0.0 | 0.00 | 0.00 | 0.00 | 92 | 1021.2 |
| 20260502115131 | 37 | 337 | 0.0 | 1.0 | 0.00 | 0.00 | 0.00 | 95 | 1021.4 |
| 20260502114627 | 36 | 11 | 0.0 | 0.0 | 0.00 | 0.00 | 0.00 | 96 | 1021.1 |
| 20260502114125 | 34 | 7 | 0.0 | 0.0 | 0.00 | 0.00 | 0.00 | 96 | 1021.3 |
| 20260502113622 | 34 | 6 | 0.0 | 0.0 | 0.00 | 0.00 | 0.00 | 96 | 1021.0 |
| 20260502113121 | 33 | 6 | 0.0 | 0.0 | 0.00 | 0.00 | 0.00 | 97 | 1021.1 |
| 20260502112618 | 32 | 6 | 0.0 | 0.0 | 0.00 | 0.00 | 0.00 | 97 | 1021.2 |
| 20260502112115 | 32 | 6 | 0.0 | 0.0 | 0.00 | 0.00 | 0.00 | 97 | 1021.0 |
| 20260502111613 | 32 | 6 | 0.0 | 0.0 | 0.00 | 0.00 | 0.00 | 97 | 1021.0 |
| 20260502111110 | 31 | 6 | 0.0 | 0.0 | 0.00 | 0.00 | 0.00 | 97 | 1020.9 |
| 20260502110608 | 31 | 6 | 0.0 | 0.0 | 0.00 | 0.00 | 0.00 | 97 | 1020.9 |
| 20260502110105 | 30 | 6 | 0.0 | 0.0 | 0.00 | 0.00 | 0.00 | 97 | 1020.9 |
| 20260502105602 | 30 | 5 | 0.0 | 0.0 | 0.00 | 0.00 | 0.00 | 97 | 1020.7 |
| 20260502105059 | 30 | 5 | 0.0 | 0.0 | 0.00 | 0.00 | 0.00 | 97 | 1020.8 |
| 20260502104556 | 30 | 5 | 0.0 | 0.0 | 0.00 | 0.00 | 0.00 | 97 | 1020.7 |
| 20260502104054 | 30 | 5 | 0.0 | 0.0 | 0.00 | 0.00 | 0.00 | 97 | 1020.7 |
| 20260502103551 | 30 | 5 | 0.0 | 0.0 | 0.00 | 0.00 | 0.00 | 97 | 1020.9 |
| 20260502103049 | 30 | 5 | 0.0 | 0.0 | 0.00 | 0.00 | 0.00 | 97 | 1020.6 |
| 20260502102545 | 30 | 5 | 0.0 | 0.0 | 0.00 | 0.00 | 0.00 | 97 | 1020.8 |
| 20260502102043 | 29 | 5 | 0.0 | 0.0 | 0.00 | 0.00 | 0.00 | 96 | 1020.6 |
| 20260502101540 | 29 | 5 | 0.0 | 0.0 | 0.00 | 0.00 | 0.00 | 96 | 1020.7 |
| 20260502101039 | 29 | 5 | 0.0 | 0.0 | 0.00 | 0.00 | 0.00 | 96 | 1020.6 |
| 20260502100537 | 29 | 5 | 0.0 | 0.0 | 0.00 | 0.00 | 0.00 | 96 | 1020.5 |
| 20260502091512 | 30 | 5 | 0.0 | 0.0 | 0.00 | 0.00 | 0.00 | 95 | 1020.7 |
| 20260502091009 | 30 | 5 | 0.0 | 0.0 | 0.00 | 0.00 | 0.00 | 95 | 1020.6 |
| 20260502090505 | 31 | 5 | 0.0 | 0.0 | 0.00 | 0.00 | 0.00 | 95 | 1020.7 |
| 20260502071400 | 31 | 351 | 0.0 | 0.0 | 0.00 | 0.00 | 0.00 | 93 | 1020.6 |
| 20260502070858 | 32 | 351 | 0.0 | 0.0 | 0.00 | 0.00 | 0.00 | 93 | 1020.7 |
| 20260502070356 | 32 | 351 | 0.0 | 0.0 | 0.00 | 0.00 | 0.00 | 93 | 1020.8 |
| 20260502065855 | 32 | 351 | 0.0 | 0.0 | 0.00 | 0.00 | 0.00 | 93 | 1020.9 |
| 20260502065352 | 32 | 351 | 0.0 | 0.0 | 0.00 | 0.00 | 0.00 | 92 | 1020.7 |
| 20260502064850 | 32 | 351 | 0.0 | 0.0 | 0.00 | 0.00 | 0.00 | 92 | 1021.0 |
| 20260502064348 | 32 | 351 | 0.0 | 0.0 | 0.00 | 0.00 | 0.00 | 92 | 1021.0 |
| 20260502063844 | 31 | 351 | 0.0 | 0.0 | 0.00 | 0.00 | 0.00 | 92 | 1021.1 |
| 20260502063342 | 32 | 351 | 0.0 | 0.0 | 0.00 | 0.00 | 0.00 | 92 | 1021.0 |
| 20260502062839 | 32 | 351 | 0.0 | 0.0 | 0.00 | 0.00 | 0.00 | 92 | 1021.2 |
| 20260502062337 | 32 | 351 | 0.0 | 0.0 | 0.00 | 0.00 | 0.00 | 92 | 1021.1 |
| 20260502061836 | 32 | 351 | 0.0 | 0.0 | 0.00 | 0.00 | 0.00 | 92 | 1021.2 |
| 20260502061333 | 32 | 351 | 0.0 | 0.0 | 0.00 | 0.00 | 0.00 | 91 | 1021.1 |
| 20260502060828 | 31 | 351 | 0.0 | 0.0 | 0.00 | 0.00 | 0.00 | 91 | 1021.1 |
| 20260502060324 | 32 | 351 | 0.0 | 0.0 | 0.00 | 0.00 | 0.00 | 91 | 1021.1 |
| 20260502055822 | 32 | 351 | 0.0 | 0.0 | 0.00 | 0.00 | 0.00 | 90 | 1021.3 |
| 20260502055319 | 32 | 351 | 0.0 | 0.0 | 0.00 | 0.00 | 0.00 | 90 | 1021.2 |
| 20260502054819 | 32 | 351 | 0.0 | 0.0 | 0.00 | 0.00 | 0.00 | 90 | 1021.0 |
| 20260502054316 | 32 | 351 | 0.0 | 0.0 | 0.00 | 0.00 | 0.00 | 90 | 1021.2 |
| 20260502053813 | 32 | 351 | 0.0 | 0.0 | 0.00 | 0.00 | 0.00 | 90 | 1021.3 |
| 20260502053310 | 32 | 351 | 0.0 | 0.0 | 0.00 | 0.00 | 0.00 | 89 | 1021.3 |
| 20260502052808 | 32 | 351 | 0.0 | 0.0 | 0.00 | 0.00 | 0.00 | 89 | 1021.1 |
| 20260502052306 | 33 | 351 | 0.0 | 0.0 | 0.00 | 0.00 | 0.00 | 89 | 1021.0 |
| 20260502051804 | 33 | 351 | 0.0 | 0.0 | 0.00 | 0.00 | 0.00 | 88 | 1021.3 |
| 20260502051302 | 33 | 351 | 0.0 | 0.0 | 0.00 | 0.00 | 0.00 | 88 | 1021.2 |
| 20260502050758 | 33 | 351 | 0.0 | 0.0 | 0.00 | 0.00 | 0.00 | 88 | 1021.2 |
| 20260502050254 | 33 | 351 | 0.0 | 0.0 | 0.00 | 0.00 | 0.00 | 88 | 1021.0 |
| 20260502045752 | 33 | 351 | 0.0 | 0.0 | 0.00 | 0.09 | 0.09 | 87 | 1021.1 |
| 20260502045248 | 33 | 351 | 0.0 | 0.0 | 0.00 | 0.09 | 0.09 | 86 | 1021.3 |
| 20260502044745 | 34 | 351 | 0.0 | 0.0 | 0.00 | 0.09 | 0.09 | 86 | 1021.1 |
| 20260502044241 | 34 | 351 | 0.0 | 0.0 | 0.00 | 0.09 | 0.09 | 86 | 1021.2 |
| 20260502043739 | 34 | 351 | 0.0 | 0.0 | 0.00 | 0.09 | 0.09 | 85 | 1021.3 |
| 20260502043236 | 34 | 351 | 0.0 | 0.0 | 0.00 | 0.09 | 0.09 | 85 | 1021.2 |
| 20260502042735 | 34 | 351 | 0.0 | 0.0 | 0.00 | 0.09 | 0.09 | 85 | 1021.1 |
| 20260502042233 | 34 | 351 | 0.0 | 0.0 | 0.00 | 0.09 | 0.09 | 84 | 1021.1 |
| 20260502041731 | 34 | 347 | 0.0 | 0.0 | 0.00 | 0.09 | 0.09 | 84 | 1021.1 |
| 20260502041228 | 35 | 347 | 0.0 | 0.0 | 0.00 | 0.09 | 0.09 | 83 | 1021.2 |
| 20260502040725 | 35 | 347 | 0.0 | 0.0 | 0.00 | 0.09 | 0.09 | 82 | 1021.1 |
| 20260502040221 | 35 | 345 | 0.0 | 0.0 | 0.00 | 0.09 | 0.09 | 81 | 1021.1 |
| 20260502035717 | 35 | 345 | 0.0 | 0.0 | 0.00 | 0.09 | 0.09 | 81 | 1021.1 |
| 20260502035215 | 36 | 345 | 0.0 | 0.0 | 0.00 | 0.09 | 0.09 | 80 | 1021.1 |
| 20260502034712 | 36 | 346 | 0.0 | 0.0 | 0.00 | 0.09 | 0.09 | 80 | 1021.2 |
| 20260502034210 | 35 | 19 | 0.0 | 0.0 | 0.00 | 0.09 | 0.09 | 79 | 1021.0 |
| 20260502033708 | 36 | 19 | 0.0 | 0.0 | 0.00 | 0.09 | 0.09 | 79 | 1021.0 |
| 20260502033206 | 36 | 19 | 0.0 | 0.0 | 0.00 | 0.09 | 0.09 | 78 | 1021.1 |
| 20260502032702 | 36 | 20 | 0.0 | 0.0 | 0.00 | 0.09 | 0.09 | 78 | 1021.0 |
| 20260502032157 | 36 | 29 | 0.0 | 0.0 | 0.00 | 0.09 | 0.09 | 78 | 1020.9 |
| 20260502031656 | 36 | 32 | 0.0 | 0.0 | 0.00 | 0.09 | 0.09 | 77 | 1020.8 |
| 20260502031153 | 36 | 36 | 0.0 | 0.0 | 0.00 | 0.09 | 0.09 | 77 | 1020.8 |
| 20260502030652 | 36 | 55 | 0.0 | 0.0 | 0.00 | 0.09 | 0.09 | 76 | 1020.9 |
| 20260502030150 | 36 | 59 | 0.0 | 0.0 | 0.00 | 0.09 | 0.09 | 75 | 1020.9 |
| 20260502025646 | 36 | 61 | 0.0 | 0.0 | 0.00 | 0.09 | 0.09 | 75 | 1021.0 |
| 20260502025144 | 37 | 64 | 0.0 | 0.0 | 0.00 | 0.09 | 0.09 | 73 | 1020.7 |
| 20260502024642 | 38 | 65 | 0.0 | 0.0 | 0.00 | 0.09 | 0.09 | 72 | 1020.9 |
| 20260502024140 | 38 | 63 | 0.0 | 0.0 | 0.00 | 0.09 | 0.09 | 70 | 1020.9 |
| 20260502023638 | 38 | 64 | 0.0 | 0.0 | 0.00 | 0.09 | 0.09 | 70 | 1020.8 |
| 20260502023135 | 38 | 45 | 0.0 | 0.0 | 0.00 | 0.09 | 0.09 | 69 | 1020.9 |
| 20260502022632 | 39 | 7 | 1.0 | 1.0 | 0.00 | 0.09 | 0.09 | 69 | 1020.7 |
| 20260502022129 | 38 | 4 | 0.0 | 1.0 | 0.00 | 0.09 | 0.09 | 69 | 1020.7 |
| 20260502021626 | 39 | 43 | 0.0 | 0.0 | 0.00 | 0.09 | 0.09 | 69 | 1020.6 |
| 20260502021123 | 39 | 25 | 0.0 | 0.0 | 0.00 | 0.09 | 0.09 | 69 | 1020.8 |
| 20260502020621 | 39 | 28 | 1.0 | 1.0 | 0.00 | 0.09 | 0.09 | 69 | 1020.6 |
| 20260502020117 | 39 | 17 | 0.0 | 1.0 | 0.00 | 0.09 | 0.09 | 68 | 1020.5 |
| 20260502015615 | 39 | 135 | 2.0 | 3.0 | 0.00 | 0.09 | 0.09 | 69 | 1020.5 |
| 20260502015111 | 39 | 26 | 2.0 | 2.0 | 0.00 | 0.09 | 0.09 | 69 | 1020.6 |
| 20260502014608 | 39 | 102 | 2.0 | 2.0 | 0.00 | 0.09 | 0.09 | 70 | 1020.4 |
| 20260502014106 | 39 | 46 | 1.0 | 1.0 | 0.00 | 0.09 | 0.09 | 72 | 1020.4 |
| 20260502013600 | 39 | 68 | 0.0 | 0.0 | 0.00 | 0.09 | 0.09 | 74 | 1020.3 |
| 20260502013057 | 39 | 17 | 0.0 | 1.0 | 0.00 | 0.09 | 0.09 | 76 | 1020.2 |
| 20260502012555 | 39 | 6 | 0.0 | 2.0 | 0.00 | 0.09 | 0.09 | 77 | 1020.1 |
| 20260502012053 | 39 | 50 | 0.0 | 0.0 | 0.00 | 0.09 | 0.09 | 78 | 1020.1 |
| 20260502011549 | 39 | 28 | 0.0 | 1.0 | 0.00 | 0.09 | 0.09 | 78 | 1020.1 |
| 20260502011045 | 39 | 41 | 0.0 | 1.0 | 0.00 | 0.09 | 0.09 | 78 | 1020.3 |
| 20260502010543 | 39 | 70 | 1.0 | 2.0 | 0.00 | 0.09 | 0.09 | 77 | 1020.1 |
| 20260502010039 | 39 | 28 | 0.0 | 0.0 | 0.00 | 0.09 | 0.09 | 76 | 1020.1 |
| 20260502005537 | 39 | 21 | 1.0 | 1.0 | 0.00 | 0.09 | 0.09 | 74 | 1020.1 |
| 20260502005034 | 40 | 47 | 2.0 | 3.0 | 0.00 | 0.09 | 0.09 | 71 | 1020.1 |
| 20260502004530 | 40 | 118 | 1.0 | 2.0 | 0.00 | 0.09 | 0.09 | 67 | 1020.0 |
| 20260502004027 | 41 | 28 | 2.0 | 2.0 | 0.00 | 0.09 | 0.09 | 66 | 1020.0 |
| 20260502003525 | 41 | 33 | 0.0 | 0.0 | 0.00 | 0.09 | 0.09 | 65 | 1019.9 |
| 20260502003021 | 41 | 20 | 1.0 | 2.0 | 0.00 | 0.09 | 0.09 | 65 | 1020.0 |
| 20260502002518 | 41 | 3 | 1.0 | 1.0 | 0.00 | 0.09 | 0.09 | 65 | 1019.7 |
| 20260502002015 | 42 | 18 | 2.0 | 3.0 | 0.00 | 0.09 | 0.09 | 64 | 1019.8 |
| 20260502001513 | 42 | 51 | 2.0 | 3.0 | 0.00 | 0.09 | 0.09 | 64 | 1019.9 |
| 20260502001010 | 42 | 59 | 3.0 | 3.0 | 0.00 | 0.09 | 0.09 | 63 | 1019.7 |
| 20260502000508 | 42 | 39 | 1.0 | 2.0 | 0.00 | 0.09 | 0.09 | 65 | 1019.8 |
| 20260502000005 | 42 | 17 | 1.0 | 1.0 | 0.00 | 0.09 | 0.09 | 66 | 1019.5 |
| 20260501235500 | 42 | 53 | 1.0 | 2.0 | 0.00 | 0.09 | 0.09 | 65 | 1019.6 |
| 20260501234955 | 43 | 95 | 1.0 | 2.0 | 0.00 | 0.09 | 0.09 | 67 | 1019.7 |
| 20260501234452 | 43 | 38 | 4.0 | 7.0 | 0.00 | 0.09 | 0.09 | 66 | 1019.6 |
| 20260501233951 | 43 | 76 | 3.0 | 4.0 | 0.00 | 0.09 | 0.09 | 66 | 1019.5 |
| 20260501233448 | 43 | 67 | 1.0 | 1.0 | 0.00 | 0.09 | 0.09 | 66 | 1019.5 |
| 20260501232944 | 44 | 8 | 2.0 | 3.0 | 0.00 | 0.09 | 0.09 | 67 | 1019.4 |
| 20260501232441 | 43 | 37 | 0.0 | 0.0 | 0.00 | 0.09 | 0.09 | 69 | 1019.3 |
| 20260501231938 | 43 | 136 | 0.0 | 1.0 | 0.00 | 0.09 | 0.09 | 69 | 1019.4 |
| 20260501231437 | 43 | 20 | 1.0 | 1.0 | 0.00 | 0.09 | 0.09 | 69 | 1019.4 |
| 20260501230934 | 44 | 77 | 0.0 | 1.0 | 0.00 | 0.09 | 0.09 | 69 | 1019.4 |
| 20260501230433 | 44 | 147 | 2.0 | 3.0 | 0.00 | 0.09 | 0.09 | 67 | 1019.4 |
| 20260501225930 | 44 | 121 | 1.0 | 1.0 | 0.00 | 0.09 | 0.09 | 68 | 1019.5 |
| 20260501225428 | 44 | 331 | 1.0 | 1.0 | 0.00 | 0.09 | 0.09 | 66 | 1019.5 |
| 20260501224923 | 45 | 75 | 3.0 | 4.0 | 0.00 | 0.09 | 0.09 | 65 | 1019.6 |
| 20260501224421 | 46 | 80 | 1.0 | 2.0 | 0.00 | 0.09 | 0.09 | 66 | 1019.3 |
| 20260501223918 | 45 | 83 | 2.0 | 3.0 | 0.00 | 0.09 | 0.09 | 65 | 1019.3 |